DW8219 Weather Reports


Display with metric or nautical units.
time (UTC)temp
F
wind
direction
speed
MPH
gust
MPH
rain 1hr
in
rain 24hr
in
rain mn
in
humidity
%
barometer
mb
20190326201352 49 25 3.0 15.0 0.00 0.00 0.00 27 1022.5
20190326200852 48 329 2.0 10.0 0.00 0.00 0.00 21 1022.5
20190326200352 48 348 6.0 12.0 0.00 0.00 0.00 25 1022.5
20190326195852 48 33 5.0 12.0 0.00 0.00 0.00 23 1022.5
20190326195353 48 21 6.0 12.0 0.00 0.00 0.00 23 1022.5
20190326194852 48 15 7.0 15.0 0.00 0.00 0.00 21 1022.5
20190326194352 48 331 2.0 15.0 0.00 0.00 0.00 22 1022.6
20190326193852 49 346 5.0 10.0 0.00 0.00 0.00 23 1022.6
20190326193352 49 305 5.0 13.0 0.00 0.00 0.00 24 1022.8
20190326192852 48 346 5.0 12.0 0.00 0.00 0.00 23 1022.8
20190326192352 48 308 3.0 10.0 0.00 0.00 0.00 24 1022.8
20190326191852 47 349 0.0 3.0 0.00 0.00 0.00 26 1023.0
20190326191352 48 17 1.0 7.0 0.00 0.00 0.00 25 1023.0
20190326190852 49 336 5.0 12.0 0.00 0.00 0.00 26 1023.0
20190326190354 48 321 2.0 10.0 0.00 0.00 0.00 26 1023.1
20190326185852 48 318 3.0 8.0 0.00 0.00 0.00 28 1023.2
20190326185353 47 2 2.0 8.0 0.00 0.00 0.00 30 1023.1
20190326184852 47 27 2.0 12.0 0.00 0.00 0.00 27 1023.3
20190326184352 46 356 6.0 14.0 0.00 0.00 0.00 28 1023.3
20190326183852 46 317 1.0 5.0 0.00 0.00 0.00 26 1023.4
20190326183352 47 13 3.0 12.0 0.00 0.00 0.00 28 1023.4
20190326182852 46 309 3.0 14.0 0.00 0.00 0.00 27 1023.5
20190326182353 46 77 3.0 9.0 0.00 0.00 0.00 27 1023.5
20190326181853 46 9 5.0 12.0 0.00 0.00 0.00 25 1023.6
20190326181353 46 49 1.0 10.0 0.00 0.00 0.00 28 1023.7
20190326180852 47 319 3.0 10.0 0.00 0.00 0.00 28 1023.8
20190326180352 47 16 5.0 13.0 0.00 0.00 0.00 27 1023.8
20190326175852 47 336 3.0 10.0 0.00 0.00 0.00 28 1023.8
20190326175353 47 349 6.0 17.0 0.00 0.00 0.00 27 1023.9
20190326174852 46 26 2.0 6.0 0.00 0.00 0.00 26 1023.9
20190326174353 45 6 7.0 12.0 0.00 0.00 0.00 24 1024.0
20190326173852 46 29 5.0 13.0 0.00 0.00 0.00 25 1024.0
20190326173353 47 18 4.0 13.0 0.00 0.00 0.00 28 1024.1
20190326172852 47 338 2.0 8.0 0.00 0.00 0.00 28 1024.1
20190326172352 46 10 5.0 12.0 0.00 0.00 0.00 28 1024.1
20190326171852 46 335 7.0 12.0 0.00 0.00 0.00 27 1024.2
20190326171353 46 336 7.0 15.0 0.00 0.00 0.00 23 1024.2
20190326170852 47 351 9.0 15.0 0.00 0.00 0.00 27 1024.1
20190326170352 46 332 3.0 14.0 0.00 0.00 0.00 28 1024.2
20190326165852 45 318 4.0 12.0 0.00 0.00 0.00 27 1024.2
20190326165353 45 5 4.0 14.0 0.00 0.00 0.00 26 1024.3
20190326164853 45 348 6.0 14.0 0.00 0.00 0.00 29 1024.3
20190326164352 45 327 2.0 13.0 0.00 0.00 0.00 29 1024.3
20190326163852 45 358 5.0 12.0 0.00 0.00 0.00 28 1024.3
20190326163352 44 39 6.0 12.0 0.00 0.00 0.00 27 1024.3
20190326162853 43 71 2.0 12.0 0.00 0.00 0.00 25 1024.4
20190326162353 43 46 6.0 12.0 0.00 0.00 0.00 25 1024.4
20190326161853 44 56 10.0 15.0 0.00 0.00 0.00 25 1024.4
20190326161353 44 39 5.0 12.0 0.00 0.00 0.00 28 1024.4
20190326160853 43 30 5.0 15.0 0.00 0.00 0.00 28 1024.4
20190326160352 43 33 11.0 20.0 0.00 0.00 0.00 26 1024.4
20190326155853 43 28 4.0 16.0 0.00 0.00 0.00 26 1024.5
20190326155353 43 29 7.0 13.0 0.00 0.00 0.00 26 1024.4
20190326154853 44 21 6.0 14.0 0.00 0.00 0.00 25 1024.4
20190326154353 44 340 8.0 15.0 0.00 0.00 0.00 27 1024.4
20190326153853 43 345 4.0 15.0 0.00 0.00 0.00 29 1024.4
20190326153353 43 19 5.0 13.0 0.00 0.00 0.00 29 1024.5
20190326152853 42 33 6.0 14.0 0.00 0.00 0.00 26 1024.4
20190326152352 42 15 6.0 15.0 0.00 0.00 0.00 27 1024.4
20190326151853 42 46 6.0 12.0 0.00 0.00 0.00 26 1024.5
20190326151353 42 24 5.0 15.0 0.00 0.00 0.00 28 1024.3
20190326150853 42 26 7.0 15.0 0.00 0.00 0.00 28 1024.2
20190326150353 40 12 5.0 16.0 0.00 0.00 0.00 28 1024.2
20190326145853 40 24 7.0 15.0 0.00 0.00 0.00 28 1024.1
20190326145353 41 25 9.0 21.0 0.00 0.00 0.00 28 1024.1
20190326144853 40 49 9.0 18.0 0.00 0.00 0.00 28 1024.0
20190326144353 40 38 9.0 18.0 0.00 0.00 0.00 27 1024.0
20190326143853 40 36 10.0 17.0 0.00 0.00 0.00 28 1024.0
20190326143353 39 14 9.0 20.0 0.00 0.00 0.00 29 1023.9
20190326142853 39 24 9.0 15.0 0.00 0.00 0.00 28 1023.8
20190326142354 39 10 8.0 15.0 0.00 0.00 0.00 30 1023.7
20190326141853 39 6 7.0 16.0 0.00 0.00 0.00 30 1023.7
20190326141353 39 58 6.0 16.0 0.00 0.00 0.00 31 1023.6
20190326140853 38 9 12.0 18.0 0.00 0.00 0.00 30 1023.6
20190326140353 38 45 7.0 20.0 0.00 0.00 0.00 31 1023.5
20190326135854 38 25 6.0 21.0 0.00 0.00 0.00 32 1023.4
20190326135353 38 26 7.0 20.0 0.00 0.00 0.00 32 1023.3
20190326134853 37 18 10.0 17.0 0.00 0.00 0.00 30 1023.3
20190326134353 37 17 5.0 12.0 0.00 0.00 0.00 32 1023.3
20190326133853 37 46 9.0 18.0 0.00 0.00 0.00 31 1023.1
20190326133353 36 20 8.0 20.0 0.00 0.00 0.00 32 1023.2
20190326132853 37 14 7.0 13.0 0.00 0.00 0.00 32 1023.1
20190326132353 37 17 6.0 14.0 0.00 0.00 0.00 33 1023.0
20190326131853 37 9 5.0 12.0 0.00 0.00 0.00 33 1023.0
20190326131353 37 29 3.0 12.0 0.00 0.00 0.00 34 1022.9
20190326130853 36 52 5.0 17.0 0.00 0.00 0.00 34 1022.9
20190326130354 36 30 8.0 15.0 0.00 0.00 0.00 34 1022.8
20190326125853 36 9 7.0 16.0 0.00 0.00 0.00 35 1022.8
20190326125354 35 36 7.0 15.0 0.00 0.00 0.00 34 1022.8
20190326124853 35 8 3.0 9.0 0.00 0.00 0.00 37 1022.7
20190326124354 35 22 5.0 13.0 0.00 0.00 0.00 37 1022.6
20190326123853 35 21 5.0 12.0 0.00 0.00 0.00 37 1022.6
20190326123353 35 12 3.0 12.0 0.00 0.00 0.00 38 1022.5
20190326122853 34 14 3.0 12.0 0.00 0.00 0.00 37 1022.4
20190326122353 34 336 2.0 12.0 0.00 0.00 0.00 39 1022.4
20190326121853 34 27 4.0 14.0 0.00 0.00 0.00 38 1022.4
20190326121354 34 358 2.0 10.0 0.00 0.00 0.00 40 1022.3
20190326120853 34 34 4.0 15.0 0.00 0.00 0.00 39 1022.2
20190326120354 33 341 2.0 8.0 0.00 0.00 0.00 40 1022.1
20190326115853 33 16 5.0 12.0 0.00 0.00 0.00 41 1022.1
20190326115353 33 32 1.0 6.0 0.00 0.00 0.00 41 1022.0
20190326114853 32 23 5.0 12.0 0.00 0.00 0.00 41 1022.1
20190326114354 32 17 5.0 13.0 0.00 0.00 0.00 41 1022.0
20190326113854 32 6 3.0 10.0 0.00 0.00 0.00 42 1021.9
20190326113354 31 12 3.0 10.0 0.00 0.00 0.00 42 1021.9
20190326112853 31 32 2.0 5.0 0.00 0.00 0.00 42 1021.8
20190326112354 31 32 1.0 3.0 0.00 0.00 0.00 42 1021.7
20190326111853 31 10 1.0 6.0 0.00 0.00 0.00 42 1021.6
20190326111354 30 29 2.0 10.0 0.00 0.00 0.00 42 1021.6
20190326110853 30 2 2.0 6.0 0.00 0.00 0.00 42 1021.6
20190326110354 30 38 1.0 5.0 0.00 0.00 0.00 42 1021.6
20190326105853 31 348 2.0 9.0 0.00 0.00 0.00 41 1021.5
20190326105354 31 39 2.0 5.0 0.00 0.00 0.00 41 1021.4
20190326104854 31 2 1.0 6.0 0.00 0.00 0.00 40 1021.3
20190326104353 31 28 1.0 7.0 0.00 0.00 0.00 39 1021.2
20190326103853 31 16 2.0 9.0 0.00 0.00 0.00 39 1021.2
20190326103353 31 27 3.0 9.0 0.00 0.00 0.00 39 1021.2
20190326102854 31 15 4.0 12.0 0.00 0.00 0.00 39 1021.0
20190326102353 31 35 2.0 8.0 0.00 0.00 0.00 38 1021.0
20190326101854 31 29 2.0 7.0 0.00 0.00 0.00 38 1020.9
20190326101354 31 18 2.0 8.0 0.00 0.00 0.00 38 1020.8
20190326100854 31 35 2.0 6.0 0.00 0.00 0.00 38 1020.8
20190326100354 31 11 1.0 6.0 0.00 0.00 0.00 38 1020.7
20190326095854 31 35 2.0 10.0 0.00 0.00 0.00 38 1020.7
20190326095354 31 10 1.0 5.0 0.00 0.00 0.00 37 1020.6
20190326094853 31 31 3.0 9.0 0.00 0.00 0.00 37 1020.6
20190326094354 31 25 1.0 8.0 0.00 0.00 0.00 37 1020.5
20190326093854 31 25 1.0 3.0 0.00 0.00 0.00 37 1020.3
20190326093354 31 37 3.0 9.0 0.00 0.00 0.00 37 1020.2
20190326092854 31 42 1.0 10.0 0.00 0.00 0.00 38 1020.2
20190326092354 31 14 0.0 5.0 0.00 0.00 0.00 37 1020.1
20190326091854 31 13 1.0 5.0 0.00 0.00 0.00 37 1020.0
20190326091354 31 22 1.0 3.0 0.00 0.00 0.00 37 1019.9
20190326090854 31 11 1.0 3.0 0.00 0.00 0.00 38 1019.7
20190326090354 31 340 0.0 3.0 0.00 0.00 0.00 38 1019.7
20190326085854 31 5 1.0 5.0 0.00 0.00 0.00 38 1019.6
20190326085354 31 343 0.0 3.0 0.00 0.00 0.00 39 1019.6
20190326084855 31 350 0.0 3.0 0.00 0.00 0.00 38 1019.6
20190326084355 32 355 1.0 5.0 0.00 0.00 0.00 39 1019.5
20190326083854 32 19 5.0 13.0 0.00 0.00 0.00 38 1019.3
20190326083355 32 358 2.0 6.0 0.00 0.00 0.00 38 1019.2
20190326082854 32 6 4.0 10.0 0.00 0.00 0.00 38 1019.1
20190326082354 32 354 3.0 9.0 0.00 0.00 0.00 37 1019.1
20190326081854 33 13 3.0 12.0 0.00 0.00 0.00 38 1019.0
20190326081355 33 24 6.0 12.0 0.00 0.00 0.00 37 1019.0
20190326080855 33 33 6.0 15.0 0.00 0.00 0.00 37 1019.0
20190326080354 33 10 6.0 14.0 0.00 0.00 0.00 37 1019.0
20190326075854 33 16 4.0 9.0 0.00 0.00 0.00 37 1019.0
20190326075354 33 25 5.0 12.0 0.00 0.00 0.00 36 1019.1
20190326074854 33 11 2.0 7.0 0.00 0.00 0.00 36 1019.0
20190326074355 33 28 1.0 8.0 0.00 0.00 0.00 36 1019.0
20190326073854 33 17 1.0 9.0 0.00 0.00 0.00 35 1019.0
20190326073355 33 10 3.0 9.0 0.00 0.00 0.00 36 1018.9
20190326072854 33 350 2.0 8.0 0.00 0.00 0.00 36 1018.7
20190326072355 33 335 3.0 6.0 0.00 0.00 0.00 37 1018.8
20190326071854 34 336 1.0 8.0 0.00 0.00 0.00 36 1018.8
20190326071354 34 30 1.0 3.0 0.00 0.00 0.00 36 1018.7
20190326070854 34 326 1.0 7.0 0.00 0.00 0.00 36 1018.7
20190326070354 34 353 2.0 6.0 0.00 0.00 0.00 36 1018.7
20190326065854 34 341 1.0 5.0 0.00 0.00 0.00 36 1018.7
20190326065355 34 5 1.0 3.0 0.00 0.00 0.00 36 1018.8
20190326064854 34 5 1.0 3.0 0.00 0.00 0.00 36 1018.8
20190326064355 34 354 0.0 3.0 0.00 0.00 0.00 37 1018.9
20190326063855 34 340 0.0 3.0 0.00 0.00 0.00 37 1018.8
20190326063355 34 332 1.0 3.0 0.00 0.00 0.00 36 1018.8
20190326062854 34 13 0.0 3.0 0.00 0.00 0.00 36 1018.7
20190326062354 34 355 0.0 1.0 0.00 0.00 0.00 35 1018.7
20190326061855 35 355 0.0 1.0 0.00 0.00 0.00 35 1018.7
20190326061355 35 355 0.0 1.0 0.00 0.00 0.00 35 1018.7
20190326060855 35 355 1.0 3.0 0.00 0.00 0.00 34 1018.8
20190326060355 35 348 0.0 3.0 0.00 0.00 0.00 34 1018.8
20190326055854 35 348 0.0 2.0 0.00 0.00 0.00 33 1018.7
20190326055355 36 351 0.0 3.0 0.00 0.00 0.00 32 1018.7
20190326054855 36 355 0.0 3.0 0.00 0.00 0.00 31 1018.6
20190326054355 36 355 0.0 3.0 0.00 0.00 0.00 31 1018.5
20190326053854 37 350 1.0 5.0 0.00 0.00 0.00 31 1018.5
20190326053355 37 333 0.0 6.0 0.00 0.00 0.00 30 1018.5
20190326052854 37 2 2.0 5.0 0.00 0.00 0.00 31 1018.5
20190326052355 37 9 1.0 5.0 0.00 0.00 0.00 31 1018.4
20190326051855 38 12 2.0 6.0 0.00 0.00 0.00 29 1018.4
20190326051355 38 346 2.0 8.0 0.00 0.00 0.00 29 1018.4
20190326050855 38 10 1.0 7.0 0.00 0.00 0.00 28 1018.4
20190326050355 38 354 2.0 6.0 0.00 0.00 0.00 28 1018.4
20190326045854 39 340 3.0 8.0 0.00 0.00 0.00 28 1018.4
20190326045355 39 15 0.0 7.0 0.00 0.00 0.00 28 1018.5
20190326044855 39 355 1.0 6.0 0.00 0.00 0.00 27 1018.5
20190326044355 40 12 1.0 8.0 0.00 0.00 0.00 27 1018.4
20190326043855 40 334 2.0 5.0 0.00 0.00 0.00 27 1018.3
20190326043355 40 28 4.0 10.0 0.00 0.00 0.00 25 1018.3
20190326042855 41 1 3.0 12.0 0.00 0.00 0.00 25 1018.3
20190326042355 41 29 2.0 9.0 0.00 0.00 0.00 26 1018.3
20190326041855 41 17 2.0 10.0 0.00 0.00 0.00 25 1018.2
20190326041355 41 19 5.0 9.0 0.00 0.00 0.00 25 1018.1
20190326040855 42 24 6.0 10.0 0.00 0.00 0.00 26 1018.0
20190326040355 42 27 2.0 7.0 0.00 0.00 0.00 25 1017.7
20190326035855 42 24 2.0 8.0 0.00 0.00 0.00 25 1017.7
20190326035355 42 343 2.0 9.0 0.00 0.00 0.00 26 1017.6
20190326034855 43 20 2.0 7.0 0.00 0.00 0.00 26 1017.6
20190326034355 43 21 1.0 8.0 0.00 0.00 0.00 26 1017.6
20190326033855 43 27 1.0 5.0 0.00 0.00 0.00 26 1017.5
20190326033355 43 28 2.0 6.0 0.00 0.00 0.00 27 1017.5
20190326032855 43 10 2.0 7.0 0.00 0.00 0.00 26 1017.5
20190326032355 44 53 2.0 5.0 0.00 0.00 0.00 26 1017.4
20190326031855 44 26 2.0 6.0 0.00 0.00 0.00 26 1017.4
20190326031355 44 38 4.0 10.0 0.00 0.00 0.00 25 1017.4
20190326030855 44 47 2.0 7.0 0.00 0.00 0.00 26 1017.4
20190326030355 44 20 0.0 8.0 0.00 0.00 0.00 26 1017.4
20190326025855 44 40 2.0 12.0 0.00 0.00 0.00 26 1017.4
20190326025355 45 28 1.0 7.0 0.00 0.00 0.00 26 1017.3
20190326024856 45 8 1.0 9.0 0.00 0.00 0.00 25 1017.2
20190326024355 45 323 2.0 6.0 0.00 0.00 0.00 24 1017.2
20190326023855 45 333 1.0 8.0 0.00 0.00 0.00 26 1017.1
20190326023355 45 355 1.0 8.0 0.00 0.00 0.00 24 1017.1
20190326022855 45 328 2.0 9.0 0.00 0.00 0.00 25 1017.0
20190326022356 45 319 3.0 12.0 0.00 0.00 0.00 26 1016.8
20190326021856 45 337 5.0 14.0 0.00 0.00 0.00 26 1016.8
20190326021355 45 344 2.0 8.0 0.00 0.00 0.00 27 1016.8
20190326020855 45 318 2.0 8.0 0.00 0.00 0.00 27 1016.8
20190326020355 45 320 1.0 12.0 0.00 0.00 0.00 26 1016.7
20190326015855 45 332 2.0 10.0 0.00 0.00 0.00 27 1016.6
20190326015356 46 316 3.0 8.0 0.00 0.00 0.00 29 1016.7
20190326014855 46 324 3.0 8.0 0.00 0.00 0.00 32 1016.7
20190326014355 46 334 4.0 12.0 0.00 0.00 0.00 35 1016.6
20190326013856 46 324 4.0 9.0 0.00 0.00 0.00 38 1016.6
20190326013356 46 312 2.0 5.0 0.00 0.00 0.00 43 1016.6
20190326012855 46 311 3.0 8.0 0.00 0.00 0.00 43 1016.5
20190326012356 46 297 0.0 3.0 0.00 0.00 0.00 42 1016.4
20190326011855 46 299 1.0 5.0 0.00 0.00 0.00 42 1016.4
20190326011356 46 322 1.0 8.0 0.00 0.00 0.00 41 1016.4
20190326010855 46 319 0.0 5.0 0.00 0.00 0.00 41 1016.2
20190326010356 46 262 1.0 3.0 0.00 0.00 0.00 42 1016.2
20190326005856 46 257 0.0 2.0 0.00 0.00 0.00 42 1016.1
20190326005355 46 257 1.0 3.0 0.00 0.00 0.00 42 1016.0
20190326004856 46 257 0.0 2.0 0.00 0.00 0.00 43 1015.9
20190326004356 46 257 1.0 3.0 0.00 0.00 0.00 43 1015.9
20190326003855 47 257 0.0 3.0 0.00 0.00 0.00 41 1016.1
20190326003355 47 257 0.0 3.0 0.00 0.00 0.00 44 1016.1
20190326002856 46 257 0.0 3.0 0.00 0.00 0.00 43 1016.2
20190326002356 47 257 0.0 1.0 0.00 0.00 0.00 43 1016.2
20190326001856 47 257 0.0 0.0 0.00 0.00 0.00 43 1016.1
20190326001356 47 257 0.0 1.0 0.00 0.00 0.00 43 1016.2
20190326000855 47 257 2.0 5.0 0.00 0.00 0.00 43 1016.3
20190326000356 47 255 1.0 3.0 0.00 0.00 0.00 43 1016.4
20190325235856 47 255 1.0 3.0 0.00 0.00 0.00 43 1016.3
20190325235356 47 255 3.0 7.0 0.00 0.00 0.00 43 1016.3
20190325234856 47 252 2.0 7.0 0.00 0.00 0.00 44 1016.4
20190325234356 47 253 2.0 3.0 0.00 0.00 0.00 44 1016.4
20190325233855 47 252 1.0 3.0 0.00 0.00 0.00 44 1016.3
20190325233356 47 252 3.0 7.0 0.00 0.00 0.00 44 1016.4
20190325232856 47 265 3.0 9.0 0.00 0.00 0.00 44 1016.5
20190325232356 47 241 5.0 8.0 0.00 0.00 0.00 44 1016.5
20190325231856 47 254 3.0 8.0 0.00 0.00 0.00 45 1016.4
20190325231356 48 232 3.0 7.0 0.00 0.00 0.00 45 1016.4
20190325230856 48 281 2.0 3.0 0.00 0.00 0.00 46 1016.2
20190325230356 48 282 1.0 6.0 0.00 0.00 0.00 47 1016.0
20190325225856 48 282 2.0 3.0 0.00 0.00 0.00 47 1015.8
20190325225356 48 283 0.0 3.0 0.00 0.00 0.00 48 1015.8
20190325224856 48 286 0.0 2.0 0.00 0.00 0.00 48 1015.6
20190325224356 48 286 0.0 1.0 0.00 0.00 0.00 47 1015.4
20190325223856 48 286 0.0 3.0 0.00 0.00 0.00 46 1015.3
20190325223356 48 277 1.0 6.0 0.00 0.00 0.00 48 1015.2
20190325222856 48 265 1.0 3.0 0.00 0.00 0.00 45 1015.1
20190325222356 48 265 0.0 3.0 0.00 0.00 0.00 46 1015.0
20190325221856 48 265 0.0 1.0 0.00 0.00 0.00 47 1014.9
20190325221357 48 265 0.0 2.0 0.00 0.00 0.00 48 1015.0
20190325220857 48 264 0.0 3.0 0.00 0.00 0.00 48 1015.1
20190325220356 48 264 1.0 3.0 0.00 0.00 0.00 48 1015.0
20190325215856 48 263 0.0 2.0 0.00 0.00 0.00 47 1015.2
20190325215357 48 263 1.0 3.0 0.00 0.00 0.00 47 1015.2
20190325214856 48 257 0.0 1.0 0.00 0.00 0.00 47 1015.2
20190325214357 48 257 0.0 2.0 0.00 0.00 0.00 47 1015.2
20190325213857 48 257 0.0 1.0 0.00 0.00 0.00 47 1015.2
20190325213356 48 256 0.0 2.0 0.00 0.00 0.00 47 1015.4
20190325212856 48 256 0.0 2.0 0.00 0.00 0.00 48 1015.5
20190325212356 48 255 0.0 2.0 0.00 0.00 0.00 47 1015.5
20190325211856 48 256 0.0 3.0 0.00 0.00 0.00 47 1015.6
20190325211357 49 251 0.0 3.0 0.00 0.00 0.00 47 1015.6
20190325210856 48 250 2.0 7.0 0.00 0.00 0.00 47 1015.9
20190325210356 48 247 3.0 7.0 0.00 0.00 0.00 47 1015.9
20190325205857 48 239 1.0 2.0 0.00 0.00 0.00 47 1016.0
20190325205357 48 238 3.0 6.0 0.00 0.00 0.00 47 1016.0
20190325204856 48 266 2.0 6.0 0.00 0.00 0.00 47 1016.1
20190325204357 48 268 0.0 3.0 0.00 0.00 0.00 49 1016.1
20190325203857 48 263 1.0 5.0 0.00 0.00 0.00 48 1016.1
20190325203357 49 236 3.0 6.0 0.00 0.00 0.00 49 1016.1
20190325202856 49 269 1.0 7.0 0.00 0.00 0.00 49 1016.1
20190325202356 49 244 1.0 3.0 0.00 0.00 0.00 51 1016.1
20190325201857 49 245 1.0 7.0 0.00 0.00 0.00 50 1016.2